DECAYED

CZ-2D DEB, 31409 (Decayed)

Orbit data source: Space-Track

CZ-2D DEB, 31409 was space debris in SSO originally from a launch on Tue, 05 Jul 2005 UTC launched from the Jiuquan Satellite Launch Center, China (JSC). Debris objects in space refer to the collection of defunct objects orbiting the Earth. Examples of debris include non-operational satellites, rocket bodies, and fragments generated from explosions, collisions, or faulty payload assembly.

Not visible in the next 10 days
Identifier
31409, 2005-024J
Orbit
Decayed
Country
Flag of CNCN / PRC
Related business
Manufacturer
Unknown
Mission
Decayed spacecraft
Bus & Motor
Unknown
Mass
Unknown
Launch date (UTC)
2005-07-05 (21 years ago)
Launch vehicle
Unknown
Launch site
Jiuquan Satellite Launch Center, China (JSC)
Object type
Payload
Rocket body
Debris
Shape & HBR
Unknown shape, 0.1 m
Radar Cross Section
Small (<0.1 m²)

Expand to show TLE details & history
Last TLE update: 3 months ago

TLE from 3 months ago
0 CZ-2D DEB
1 31409U 05024J   26079.37971446  .00414611  80527-4  62734-3 0  9991
2 31409  97.1317 122.7251 0003368 139.7585 220.3946 16.04584635120130
Epoch: 2026-03-20T09:06Z
TLE epoch observation values (Epoch: 2026-03-20T09:06:47.329Z)
Latitude
-0.00004°
Longitude
168.11228°
Altitude
266.657 km
Speed
7.746 km/s
True Right ascension
08h 10m 54s
True Declination
0° 00' 00"
Sunlit
Object was in full shadow at epoch
Visualization orbit readout
Latitude
Unknown
Longitude
Unknown
Altitude
Unknown
Speed
Unknown
Apparent Right ascension
Unknown
Apparent Declination
Unknown
Sunlit
N/A
Visualization observer readout
Local Sidereal Time
23:18:17
Azimuth
Unknown
Elevation
Unknown
Doppler factor
Unknown
Orbital elements
Apogee altitude
260.818 km
Perigee altitude
256.348 km
Semi-major axis
6,636.72 km
Eccentricity
0.00034
Inclination
97.1317°
RAAN
122.7251°
Arg. of periapsis
139.7585°
True anomaly
220.3696°
Mean anomaly
220.3946°
Eccentric anomaly
220.3821°
Mean motion
4.01433 °/min
Orbital period
89.68 mins
BSTAR
0.00062734
Loading maneuver chart data...
Computing Atmospheric mass density...
Loading historical data...
Loading historical data...
Loading historical data...
Loading historical data...
Loading historical data...
Loading historical data...
Loading historical data...

Documentation

Showing up to 5 results
|